Theta_e
317 317 319 322 323 321 321 324 324 326 326 324 324 325 330 330 330 329 333 336 336 337 336 335 335 335 336 339 339 338 337 338 339 338 338 336 333 336 335 326 321 319 319 323 324 326 323 320 318
317 318 321 322 322 321 321 324 326 326 324 323 323 324 326 330 332 337 341 332 333 337 335 334 333 333 335 338 339 337 335 337 339 339 340 337 335 336 334 324 321 319 318 319 320 321 320 319 319
317 320 323 323 322 323 326 326 326 325 323 324 325 324 326 330 340 339 336 330 331 332 335 333 332 335 337 339 337 334 335 338 339 340 340 337 335 337 330 324 321 320 319 319 319 319 318 318 319
319 321 321 324 322 324 325 325 324 325 324 324 323 326 331 341 342 342 336 332 333 334 338 334 334 337 338 338 334 331 335 338 339 339 339 338 337 337 327 324 322 321 320 319 319 318 318 318 318
319 321 323 322 322 323 324 323 323 325 324 324 325 327 330 338 334 337 336 335 334 337 336 334 334 334 335 335 331 329 331 334 337 337 338 338 337 335 326 325 323 322 320 319 319 318 318 319 319
321 322 323 322 321 322 323 323 323 324 324 324 324 326 331 334 338 333 337 336 335 336 334 331 334 334 332 331 331 330 329 331 332 335 337 338 337 331 327 327 327 325 322 320 319 319 319 319 319
322 323 323 322 321 322 323 323 324 324 324 324 323 326 328 330 324 324 336 336 336 338 336 333 332 334 334 332 332 332 330 329 332 334 335 336 336 330 328 329 329 327 325 322 320 319 319 320 319
320 322 322 322 321 321 322 322 322 323 323 322 323 326 326 328 322 322 323 337 337 337 337 335 332 333 335 336 336 336 335 333 331 333 334 335 333 330 328 330 330 330 327 324 321 320 320 320 319
319 322 323 322 322 323 322 323 322 322 322 322 323 323 323 327 325 334 335 331 337 336 336 336 335 333 334 335 337 338 338 337 335 333 333 333 332 330 330 331 331 331 328 325 322 321 321 320 320
320 323 323 322 322 323 323 322 322 323 323 324 323 324 323 324 327 330 332 336 338 331 336 335 334 336 335 335 336 337 339 338 338 335 334 333 334 336 332 331 331 332 330 328 324 322 322 321 319
321 323 324 323 322 322 322 323 323 323 325 324 324 323 321 321 322 326 328 330 335 341 345 342 342 340 340 337 336 336 338 339 339 339 338 336 339 339 337 334 331 332 332 328 324 323 323 321 319
322 322 322 322 321 321 323 323 324 324 324 323 322 320 319 319 320 322 326 329 332 338 343 345 341 339 338 339 339 336 336 337 338 339 341 340 339 339 337 336 332 334 333 331 325 323 323 320 320
321 323 322 321 321 322 323 323 324 324 323 322 320 319 319 320 319 321 323 329 333 336 339 343 344 337 337 338 341 341 337 337 336 338 340 341 341 340 337 334 332 335 334 333 328 324 322 321 323
322 322 323 323 323 323 324 324 323 324 322 322 320 318 319 319 318 320 319 319 319 320 328 339 340 342 336 337 337 338 337 335 335 336 339 343 340 340 337 335 333 334 334 334 331 325 322 321 317
321 323 324 325 324 324 323 325 324 324 322 323 318 318 318 316 318 320 322 324 325 326 329 326 332 342 340 337 340 339 339 338 336 337 339 341 341 340 339 337 335 334 333 333 332 327 322 320 317
322 324 326 325 323 323 323 327 326 323 323 322 319 318 315 313 313 313 315 321 326 329 330 331 321 327 338 342 340 341 341 342 340 340 340 339 336 339 337 337 337 337 335 334 333 324 324 325 316
325 326 327 326 323 323 323 325 325 323 323 321 320 317 313 312 310 310 310 312 316 324 329 331 332 332 336 341 340 341 341 340 342 342 343 341 337 335 335 338 338 336 335 335 333 327 323 322 320
326 326 325 325 325 324 325 325 325 324 322 322 318 314 312 310 309 309 309 309 310 313 322 324 325 327 333 336 337 336 337 337 339 340 341 341 339 334 336 338 337 336 335 334 330 331 327 323 321
322 323 326 326 325 324 324 325 325 324 323 320 314 312 311 310 309 309 309 309 310 310 312 317 321 319 326 330 332 335 338 337 336 337 337 336 337 338 337 338 337 336 336 333 333 330 329 319 320
323 325 326 326 326 325 325 325 324 324 319 314 311 310 310 310 308 308 308 308 308 308 309 310 312 317 319 316 313 317 329 335 336 337 337 337 337 337 337 334 336 337 334 332 331 329 323 320 321
325 326 326 326 326 326 325 325 325 313 310 308 308 309 308 308 307 306 305 305 305 306 306 306 306 308 309 310 318 311 310 315 327 330 331 332 333 334 334 333 333 332 334 332 330 328 326 324 320
325 325 325 326 326 328 325 327 326 316 310 310 309 308 307 306 306 305 305 305 305 306 306 306 306 306 305 305 307 309 316 311 310 311 318 321 324 326 329 330 330 331 330 329 330 328 328 325 323
325 324 324 324 325 326 326 326 325 315 311 309 308 307 306 306 305 305 305 305 305 305 305 305 306 307 307 307 304 304 307 312 309 309 309 311 312 314 320 323 326 328 329 328 328 328 326 325 324
322 323 324 326 325 326 325 325 325 318 314 308 307 306 306 305 305 305 305 305 305 305 305 304 303 303 304 305 306 303 303 306 308 307 308 309 310 311 312 314 316 317 323 324 324 324 325 324 324
322 326 329 329 328 328 321 322 323 310 309 308 307 306 305 305 305 305 305 304 304 304 304 304 304 305 305 305 307 307 307 307 304 306 309 312 308 308 309 310 312 313 315 315 320 321 321 323 323
323 324 328 329 328 327 324 325 319 307 307 306 305 305 305 305 305 304 304 303 303 303 303 303 304 305 305 305 306 307 307 309 309 305 305 306 311 312 311 309 311 309 312 314 315 317 318 320 321
321 323 320 323 323 326 325 315 308 307 307 305 305 306 306 305 304 303 302 302 302 302 302 303 304 304 304 305 305 307 307 308 309 306 305 305 305 307 308 309 308 310 313 313 313 312 314 316 316
321 320 323 322 327 327 325 324 323 308 307 306 306 305 304 303 302 301 301 301 301 302 302 302 303 303 304 304 305 308 308 309 308 306 303 304 306 307 308 311 310 312 312 310 312 314 314 315 316
321 322 320 320 321 326 326 323 311 310 307 307 306 304 303 302 301 301 301 301 301 301 301 301 301 302 302 302 303 306 307 307 302 301 302 302 302 302 305 307 310 312 312 311 312 314 315 314 315
319 320 319 323 323 322 324 322 309 308 307 307 305 303 301 301 301 300 300 300 300 300 300 300 301 301 300 301 303 305 305 302 301 301 301 302 302 302 302 303 306 309 312 312 311 311 314 314 313
Wind_Speed
8 6 6 4 6 6 4 6 2 3 3 3 6 7 2 6 3 4 6 4 5 10 13 20 21 23 23 23 22 21 21 24 27 29 27 25 23 20 17 16 14 14 15 16 15 14 13 12 12
8 8 3 3 6 9 7 3 0 7 8 10 11 12 11 2 1 1 3 3 5 8 11 19 21 23 23 23 23 22 22 25 29 29 28 26 25 22 19 17 16 15 16 17 16 15 13 13 13
8 7 6 4 4 5 8 4 6 9 4 1 4 5 3 3 1 1 2 6 6 7 10 16 19 22 23 24 23 22 23 26 29 29 28 27 26 23 20 18 16 15 16 16 16 16 15 15 14
5 4 3 6 4 4 1 5 6 8 6 5 3 4 2 2 1 2 5 9 8 8 11 15 19 22 24 24 24 23 24 27 28 28 29 28 27 24 21 18 17 16 16 16 15 15 15 15 16
6 4 5 5 5 2 4 3 3 5 5 7 4 2 1 6 5 6 4 9 11 10 13 15 20 22 25 25 26 25 25 26 28 29 29 29 29 26 23 21 18 17 16 17 17 17 17 17 17
7 4 6 8 6 4 4 3 2 3 5 5 3 8 4 5 7 5 4 8 14 12 13 15 20 24 26 27 27 26 26 26 27 28 30 30 29 27 25 22 21 19 18 17 17 18 19 18 18
9 6 3 4 2 6 1 2 3 6 9 5 9 6 1 7 11 11 5 8 15 15 16 17 19 25 27 28 28 28 27 26 27 28 29 30 30 28 26 24 23 21 19 18 19 20 21 20 19
6 5 5 5 3 2 5 2 6 7 5 10 6 3 4 9 14 15 11 9 14 16 18 19 20 24 28 31 31 30 29 28 29 30 31 31 31 30 28 27 25 22 20 20 21 22 23 22 22
6 6 6 4 5 5 5 8 10 10 11 6 7 7 11 10 13 9 8 10 12 17 20 23 23 24 27 31 33 33 32 31 30 31 32 33 33 33 32 30 29 26 23 22 23 24 24 24 22
11 7 4 2 1 4 9 10 12 10 11 9 9 9 9 9 11 9 10 12 14 17 21 24 26 26 28 32 34 35 35 35 34 35 36 36 32 29 32 32 32 28 26 25 25 25 26 24 25
7 11 2 7 10 10 14 14 10 12 11 7 14 13 10 8 8 9 11 15 17 16 17 20 24 26 27 30 34 36 37 38 35 36 35 34 29 32 33 33 33 30 28 27 28 29 29 28 28
9 11 10 11 9 12 13 14 13 14 17 14 9 6 4 5 6 7 10 13 17 18 17 18 23 27 30 28 28 35 37 40 41 38 36 36 37 37 37 35 33 31 33 32 31 33 31 31 30
12 11 9 10 11 16 17 20 18 18 13 1 3 5 6 6 8 8 9 8 11 16 18 19 21 27 28 30 27 28 34 39 43 43 42 39 39 42 40 40 38 32 34 35 35 35 34 31 31
1 10 15 16 17 19 17 18 4 4 4 2 5 5 5 7 10 11 12 13 13 14 16 18 24 26 30 30 32 34 36 38 40 44 45 44 42 44 43 43 42 41 38 37 36 37 36 33 32
9 13 13 13 7 7 6 15 11 8 4 9 4 2 4 7 9 11 13 14 14 14 16 18 23 24 31 31 30 31 32 36 39 39 41 44 45 45 44 46 47 46 45 42 39 40 39 34 34
10 11 11 9 4 1 4 12 6 8 7 15 3 2 4 9 11 12 14 13 13 14 15 18 20 19 23 30 29 32 31 34 35 36 38 39 42 43 42 45 45 45 45 46 40 37 23 38 37
8 10 7 6 2 3 6 14 1 8 17 13 5 2 4 6 11 14 16 16 17 16 17 15 13 10 16 22 26 28 31 33 38 35 37 40 40 39 42 40 40 45 47 47 42 30 25 46 42
5 8 7 8 3 9 16 20 22 18 9 12 4 3 5 7 10 13 15 17 17 17 17 18 17 12 9 15 20 23 27 29 35 37 40 41 39 39 39 37 40 43 42 44 39 41 34 42 45
7 10 13 14 13 12 14 18 21 24 10 5 3 3 6 9 11 13 16 17 17 17 18 19 20 20 12 9 14 16 25 28 27 32 37 38 38 38 39 40 40 42 43 36 38 40 42 38 42
7 10 13 19 14 18 17 20 24 19 3 2 3 5 7 7 9 11 13 15 16 17 16 18 18 18 17 16 14 15 13 17 22 29 33 35 33 36 36 39 41 43 38 36 38 43 40 44 42
10 10 16 17 24 20 13 17 7 7 10 9 8 9 8 8 9 12 15 16 16 18 19 19 18 18 18 16 14 13 13 12 12 9 13 15 23 29 32 35 40 43 42 39 35 43 46 44 46
15 11 12 18 15 14 17 10 16 11 9 8 9 8 7 8 10 12 14 16 17 18 18 19 19 19 18 20 19 15 13 14 14 11 13 14 10 13 21 26 31 41 38 38 39 46 43 46 47
12 11 13 18 17 20 18 12 4 9 8 8 7 6 7 8 10 13 15 15 16 18 20 21 22 20 21 21 22 22 18 16 15 12 11 12 16 21 10 14 25 35 42 47 43 39 46 40 42
11 11 15 16 10 9 6 10 5 3 5 9 6 4 6 7 9 12 15 18 21 21 20 23 23 24 23 24 23 20 23 22 18 18 18 18 17 16 21 25 20 21 24 33 43 34 39 44 41
6 12 6 6 7 9 4 8 11 8 9 8 4 3 6 8 11 16 19 21 21 21 22 22 22 24 24 23 24 21 20 21 25 23 21 18 21 23 24 27 26 28 21 22 44 27 42 43 38
13 6 4 7 9 15 20 11 5 10 11 9 3 4 8 14 16 19 22 22 22 22 23 24 24 26 25 25 24 23 23 19 18 21 21 21 18 20 22 25 28 29 23 26 22 27 45 41 44
2 5 4 11 17 11 6 5 8 12 10 3 3 10 15 18 21 24 22 20 21 22 24 25 26 29 30 30 27 24 22 20 19 20 20 20 20 23 25 25 27 32 28 30 32 31 35 31 41
11 4 5 4 5 8 10 17 14 14 10 3 6 15 20 21 24 21 21 22 24 25 27 28 27 29 32 31 26 22 18 16 15 17 19 19 17 19 20 20 25 27 27 30 34 33 36 31 33
8 10 7 4 6 5 11 2 6 6 6 3 12 19 21 22 20 20 23 24 24 26 28 29 30 30 34 32 25 20 15 12 15 15 15 15 18 19 20 20 24 24 26 29 31 34 35 31 35
11 12 14 5 7 6 8 14 8 8 2 11 22 22 21 18 19 22 22 23 25 26 30 29 32 33 41 30 22 18 9 9 9 11 11 13 16 17 18 22 24 25 23 24 29 32 36 39 37
Wind_Direction
143 132 149 180 222 239 195 128 355 283 270 239 282 258 344 317 347 10 348 154 177 185 197 191 197 196 196 195 198 199 201 201 197 197 194 192 191 189 189 182 178 179 177 177 180 183 179 175 168
149 140 170 213 252 209 129 116 137 7 329 282 267 252 260 59 262 346 72 195 172 200 192 192 198 201 201 201 202 201 201 201 198 199 199 197 196 195 196 191 186 189 185 187 188 188 187 181 174
158 161 229 246 249 236 129 118 14 353 358 284 204 222 290 72 157 90 236 207 203 215 199 200 202 202 204 204 204 201 201 199 201 202 202 202 201 201 202 195 193 194 193 194 195 195 192 186 180
165 185 208 246 197 126 61 76 12 5 25 10 285 225 213 339 9 321 234 216 215 211 204 207 204 204 206 207 207 204 203 202 204 206 206 206 205 205 203 201 199 198 198 200 204 207 204 196 186
178 221 225 233 214 231 226 305 337 6 33 13 336 64 24 30 334 321 278 226 221 216 210 215 208 211 212 212 211 209 207 207 209 209 209 209 208 209 208 204 200 203 207 210 212 211 211 205 198
190 265 227 219 177 234 266 265 294 356 16 20 357 330 99 22 29 336 275 240 226 231 230 227 214 213 216 217 217 218 215 214 215 213 213 213 213 214 211 208 206 206 210 216 217 217 216 211 205
252 234 262 272 229 237 186 80 6 343 335 6 338 310 85 15 9 2 303 252 224 236 233 233 223 219 219 222 223 223 222 222 219 218 218 217 218 220 217 215 214 213 216 219 218 218 218 217 212
238 263 220 213 205 172 129 353 334 317 336 318 325 28 350 354 345 342 321 267 234 239 234 231 232 228 224 223 226 227 228 226 224 222 222 221 223 226 224 220 218 217 219 221 223 222 220 221 217
213 241 237 234 216 114 142 310 311 303 279 273 287 291 310 323 330 326 308 283 258 246 238 235 235 234 231 231 230 228 228 228 227 225 225 225 224 225 225 222 222 219 218 220 224 223 221 221 220
224 243 267 343 264 260 294 287 301 292 283 277 259 287 318 308 315 304 281 267 261 263 253 247 244 239 236 234 235 232 230 226 226 226 227 225 222 224 223 223 226 223 219 221 222 224 225 223 216
207 252 333 250 265 287 284 280 280 274 283 289 306 318 311 321 313 296 290 267 260 262 256 249 244 236 239 239 238 237 232 232 228 226 224 224 219 222 223 221 225 222 222 221 219 218 221 220 216
242 242 261 283 280 273 275 294 271 268 280 304 307 325 347 345 332 315 296 285 265 259 256 253 256 247 245 240 240 241 238 237 234 230 229 226 223 227 225 223 223 217 221 222 219 217 218 218 215
243 265 267 266 265 266 277 273 282 281 283 322 11 359 1 0 343 335 332 315 285 266 264 259 252 258 253 250 240 241 242 240 239 236 232 230 228 229 227 230 227 220 222 222 218 217 216 218 211
337 275 279 277 274 276 265 270 254 173 149 6 353 349 349 346 333 327 317 307 305 290 271 269 261 254 256 256 255 250 250 249 243 240 235 234 234 235 235 231 232 229 230 231 225 216 216 217 213
274 281 278 261 261 266 287 256 225 218 200 313 322 336 349 360 355 344 329 322 309 300 296 283 252 256 261 260 252 250 250 250 248 241 242 240 239 242 240 237 235 233 236 238 226 219 218 222 223
272 267 272 139 254 252 242 284 149 182 304 311 305 0 25 25 22 14 8 356 344 328 321 312 293 262 258 262 258 257 250 252 253 246 243 241 242 246 246 244 238 240 241 238 233 215 213 229 225
214 278 275 296 168 298 254 296 138 234 306 294 308 25 53 37 23 21 18 16 12 6 359 353 339 307 266 264 263 258 260 262 256 248 240 248 245 244 246 244 246 242 240 241 239 231 244 232 220
320 280 287 293 342 293 293 284 291 293 283 314 318 77 72 53 40 31 29 27 24 20 21 19 11 342 288 263 271 277 278 274 262 256 248 244 252 247 247 244 241 245 245 238 231 239 238 228 219
285 286 295 303 332 318 287 289 286 293 285 258 304 80 71 62 48 39 35 30 28 28 25 22 17 23 358 311 295 280 270 270 273 263 259 249 249 248 244 244 243 245 247 251 240 240 231 205 216
247 284 289 304 310 319 298 289 280 288 17 88 160 98 81 74 54 46 38 32 28 23 24 21 20 14 11 15 19 360 315 264 245 237 247 254 245 243 246 243 247 243 246 241 231 228 212 207 214
251 278 293 304 314 298 310 291 144 98 120 123 115 105 87 65 43 32 26 22 18 13 9 5 359 354 354 355 348 352 355 331 295 248 221 212 236 239 243 245 243 242 239 234 233 223 221 220 208
288 308 298 301 304 300 328 292 290 154 141 132 115 97 74 49 36 26 17 9 5 1 356 352 352 350 341 335 332 329 329 329 332 334 302 297 237 237 242 250 250 237 238 235 226 224 224 221 216
283 315 290 289 281 292 278 265 290 148 161 138 115 93 61 38 21 8 3 357 353 350 348 343 337 333 330 330 322 314 306 301 298 299 303 316 305 285 252 272 262 247 243 241 219 222 224 227 225
294 286 279 270 277 259 299 242 290 147 165 140 131 83 37 12 3 355 352 346 340 339 336 330 326 320 313 307 303 298 290 287 281 282 279 273 284 288 280 282 265 276 254 246 239 226 226 227 226
235 318 298 264 215 269 86 288 287 100 128 145 133 36 9 355 349 341 338 336 334 329 326 324 322 319 316 310 302 298 287 277 276 280 282 285 274 262 267 264 276 267 263 280 257 255 243 223 224
302 278 274 297 293 302 315 264 121 127 136 135 97 9 356 345 337 335 332 328 326 324 325 320 313 310 309 305 297 293 288 274 273 272 272 275 271 266 265 259 258 254 255 259 271 274 243 230 235
125 247 9 284 269 276 230 145 165 163 161 167 4 345 333 332 330 329 328 324 319 317 317 316 312 311 312 309 298 295 287 273 271 269 264 268 271 274 266 262 257 256 253 247 248 246 249 240 229
244 17 246 212 277 276 271 282 310 180 182 243 316 334 327 326 326 325 322 319 317 317 317 315 313 310 313 307 294 287 272 271 275 279 274 267 271 266 263 259 256 249 249 249 247 246 248 242 227
220 236 235 293 252 269 304 351 26 124 151 264 330 323 323 321 319 319 317 318 319 318 318 311 316 308 314 309 293 277 266 265 271 270 269 271 270 268 268 262 252 253 248 243 246 243 242 243 235
259 263 229 222 211 233 272 284 102 122 137 317 328 324 322 317 316 318 318 318 318 318 321 318 315 308 320 303 290 263 252 264 278 282 283 280 275 274 272 265 260 251 251 251 246 242 239 239 241